Wind_Speed
7 9 8 4 5 8 8 7 8 8 10 13 16 20 24 27 29 30 30 29 31 31 32 33 34 36 39 40 39 39 41 38 35 40 45 41 33 43 52 49 41 51 44 42 60
12 12 13 8 5 5 6 6 6 6 7 8 10 13 15 18 22 24 27 30 30 31 33 34 35 36 37 39 41 43 42 36 34 36 38 33 34 26 46 57 47 49 50 45 53
16 16 14 13 9 5 4 4 5 6 7 8 9 11 12 14 16 17 20 24 27 30 32 34 35 37 39 40 42 43 40 40 38 38 37 37 32 27 41 50 55 49 46 52 54
18 15 14 12 10 8 5 1 3 5 6 7 8 10 11 13 17 14 19 23 25 26 29 32 34 36 37 39 41 44 44 44 43 43 43 43 38 39 33 34 57 61 55 43 56
20 20 17 10 7 6 4 2 1 2 4 6 8 11 13 16 16 17 18 21 24 26 29 31 32 35 37 38 40 41 43 45 45 46 47 46 48 47 49 44 41 49 57 62 51
20 16 14 13 11 4 2 1 3 5 8 9 11 13 14 17 15 18 18 19 22 25 28 30 33 35 35 35 38 39 41 42 44 46 50 50 51 51 46 49 57 41 56 62 58
18 18 15 11 8 6 5 3 5 7 10 12 14 15 15 15 18 16 19 19 20 22 26 29 31 33 36 38 36 39 43 43 40 44 45 47 52 50 48 49 49 51 56 60 61
21 19 14 13 11 9 5 5 6 7 8 10 11 12 14 17 17 20 20 21 20 21 23 27 29 32 34 37 39 40 42 43 39 42 42 45 52 46 48 51 50 49 47 52 60
19 18 17 17 15 10 7 7 5 4 4 5 6 7 9 15 17 19 22 24 24 22 23 25 27 30 33 36 38 39 41 42 40 39 41 43 48 46 48 49 50 49 51 49 59
18 16 15 14 14 14 12 11 9 9 8 8 8 8 8 8 11 13 18 22 25 27 27 27 28 29 30 32 36 36 28 26 28 30 32 33 38 43 42 42 45 50 50 49 53
14 14 15 14 12 12 13 12 11 11 11 11 12 13 12 13 14 14 14 16 19 22 25 29 32 32 32 32 32 34 36 38 39 28 22 28 39 47 37 37 38 47 47 47 49
14 13 13 13 13 13 12 12 11 12 13 13 13 13 15 16 16 18 19 20 21 21 25 28 30 30 32 36 37 36 38 40 46 46 34 38 38 48 43 37 38 43 44 45 41
15 14 14 15 15 14 14 14 14 15 14 13 13 14 15 16 18 19 20 22 25 26 26 29 29 29 30 35 36 36 39 39 37 30 27 33 45 50 49 38 38 41 43 41 43
17 16 16 16 17 18 18 17 16 17 18 13 12 14 16 19 18 19 23 24 26 28 30 34 30 32 31 35 35 36 33 26 28 29 32 28 40 36 32 30 36 44 46 45 42
19 19 18 18 18 19 19 19 18 19 20 17 15 16 18 18 23 26 18 25 27 31 35 33 33 29 27 33 31 35 24 31 29 34 32 39 39 42 32 29 30 37 42 42 43
19 19 19 20 20 19 21 21 21 20 21 22 21 20 19 20 20 21 29 27 27 32 36 38 35 31 27 29 34 30 31 37 38 42 40 42 32 39 31 28 25 31 43 44 42
22 19 19 19 20 20 20 21 21 20 21 18 22 23 24 21 22 27 32 32 34 34 34 32 29 34 30 36 33 32 32 32 29 32 35 22 36 22 14 22 24 38 46 48 41
24 22 19 18 19 21 20 20 20 23 20 28 23 24 24 24 24 23 24 28 30 33 39 42 40 37 37 42 38 40 33 32 28 27 28 26 38 27 21 28 39 41 46 48 36
24 23 19 18 20 19 20 21 21 24 26 26 27 27 24 19 19 30 31 28 23 32 43 45 38 43 37 38 28 33 36 22 35 37 36 31 33 31 35 29 37 43 50 48 41
25 22 22 20 20 20 19 20 21 26 27 26 29 28 25 24 27 27 29 31 34 43 46 47 53 42 39 44 33 40 41 39 38 33 35 28 27 29 31 26 25 35 34 36 42
25 24 26 23 22 21 21 19 21 27 28 26 27 28 27 27 28 31 34 33 35 46 42 46 43 34 31 32 24 28 27 31 38 40 45 36 29 34 32 36 29 33 33 33 38
29 29 28 27 25 23 21 23 24 23 27 28 27 25 27 27 30 33 36 39 43 37 35 31 28 34 31 20 19 24 23 32 39 39 40 34 34 18 29 26 30 26 25 35 26
31 31 27 30 28 26 28 26 29 25 27 26 26 25 26 28 33 34 37 38 32 33 30 23 22 25 13 12 22 22 30 31 29 37 44 43 39 32 37 23 25 30 23 31 36
33 30 35 30 27 27 27 25 28 28 24 25 26 26 28 29 31 34 37 37 36 28 23 17 19 22 22 22 26 31 26 26 38 20 24 37 40 37 35 37 32 35 40 37 46
37 34 31 32 34 33 30 27 26 27 25 26 24 25 28 29 32 34 36 35 27 23 12 15 15 20 21 24 26 29 29 28 28 32 39 34 34 37 39 48 43 31 32 32 25
38 39 36 34 35 34 29 28 27 25 25 25 27 25 27 30 31 33 34 30 22 18 19 18 17 21 20 21 23 24 24 26 28 31 34 36 39 33 33 32 46 46 40 36 32
41 41 40 35 37 37 31 29 26 27 23 24 24 23 27 29 30 31 30 24 19 17 18 20 21 17 14 18 20 21 13 14 19 21 29 27 25 24 24 25 29 43 45 48 46
Wind_Direction
67 47 49 90 167 178 190 202 211 217 226 233 236 240 243 246 249 251 251 249 246 241 242 242 241 243 243 242 244 245 244 243 244 242 242 241 233 271 270 262 258 257 252 233 235
72 58 52 70 103 160 179 193 207 218 226 231 233 236 239 244 247 250 249 250 248 246 245 243 242 240 242 244 245 247 248 247 244 242 240 239 239 237 271 264 257 256 253 251 261
66 54 54 64 71 102 161 202 213 223 232 236 240 243 244 245 247 248 251 250 249 248 247 247 245 243 241 240 242 243 245 250 246 242 244 239 225 235 261 264 259 257 259 257 254
65 51 50 60 68 73 80 127 232 242 243 245 251 256 259 262 266 256 257 256 253 252 250 248 247 246 244 242 241 242 241 243 244 247 245 239 231 217 227 253 267 266 261 258 259
58 61 52 46 58 64 66 61 7 282 270 266 269 274 276 275 283 272 275 272 266 261 258 255 252 250 247 244 242 242 242 242 241 243 247 249 245 233 224 223 250 258 263 261 256
41 45 49 46 44 43 30 312 284 279 279 281 282 284 283 280 276 282 279 278 273 268 262 258 255 257 257 254 251 248 246 246 243 242 244 248 249 244 250 236 230 235 257 262 259
47 44 50 46 32 17 16 352 316 300 292 286 284 284 284 286 285 280 282 280 281 275 268 263 262 259 254 253 252 249 251 252 252 253 252 253 251 247 251 248 248 246 249 263 263
32 40 45 55 64 57 23 338 311 295 287 284 287 285 282 285 284 285 283 285 283 281 278 273 266 263 261 259 257 255 255 257 253 255 253 253 252 252 250 252 252 255 253 256 263
18 23 26 28 27 39 47 43 46 27 338 311 304 295 300 286 284 283 280 278 276 275 274 274 272 268 265 262 260 260 261 261 261 260 259 258 256 252 253 254 253 252 255 254 254
5 4 10 11 10 11 15 9 360 349 347 337 330 321 312 291 286 283 283 280 277 273 270 269 268 267 267 264 264 262 264 275 278 269 258 262 258 257 250 249 248 250 254 258 259
350 353 352 353 353 353 350 355 351 338 332 329 328 324 324 319 312 303 294 283 281 279 277 273 269 269 268 265 259 257 254 236 233 223 240 247 259 256 255 251 249 251 253 254 261
340 334 334 334 333 335 337 334 335 325 324 321 322 316 313 310 307 304 303 297 291 281 278 275 275 274 268 263 261 256 254 255 245 243 233 234 248 260 262 255 252 254 253 253 256
335 329 321 319 317 313 317 316 318 316 314 306 307 307 305 304 302 301 293 293 293 291 286 278 277 267 263 270 267 261 264 263 258 253 252 261 258 258 260 260 253 254 258 261 259
331 325 320 317 313 307 305 306 308 306 303 307 301 301 301 297 296 293 295 293 290 289 288 284 283 272 266 269 269 270 267 270 275 267 251 242 259 262 267 267 254 245 249 254 259
332 328 324 317 313 312 308 302 302 303 307 307 300 301 303 299 303 301 290 288 287 285 285 288 284 283 274 277 276 269 265 247 238 249 250 254 250 259 246 234 252 260 253 253 252
326 326 328 323 317 313 309 305 302 300 302 297 297 297 298 301 296 291 298 296 284 284 280 281 283 292 295 274 276 277 259 258 252 251 246 256 257 257 253 251 258 264 262 250 249
331 324 321 323 321 313 310 305 300 298 297 288 299 302 304 307 302 300 301 302 306 306 298 297 275 272 285 274 251 261 269 273 268 263 264 265 248 270 260 252 238 238 255 261 255
338 331 321 319 319 318 313 305 301 296 281 284 291 291 294 297 299 290 286 281 285 281 289 283 276 265 256 272 256 246 239 254 258 261 272 253 246 242 219 248 225 226 244 256 255
329 336 329 322 318 318 316 309 301 295 291 289 288 287 289 293 278 294 304 311 292 271 273 272 277 282 279 276 263 269 246 254 254 258 256 247 231 234 215 224 247 246 252 263 264
323 331 329 324 316 312 314 309 306 298 300 295 292 284 285 284 284 274 277 278 277 271 275 275 280 281 271 264 273 265 261 243 251 262 250 252 252 255 254 245 215 248 253 254 255
318 323 321 325 319 314 310 307 305 304 305 297 291 286 286 291 293 293 296 295 281 288 279 279 277 285 285 266 257 284 276 264 263 259 266 264 243 250 262 264 253 242 250 247 249
307 313 319 318 320 314 303 304 302 300 302 301 296 288 290 294 296 298 299 298 299 298 292 273 276 277 280 263 254 253 264 256 246 246 253 259 245 236 250 265 253 213 220 244 257
301 306 312 313 317 316 314 308 306 303 302 301 297 289 291 297 303 305 305 307 295 307 291 289 266 267 252 263 254 251 238 250 247 246 255 258 239 246 255 262 256 215 238 249 259
294 299 307 309 304 307 306 299 298 300 299 298 297 293 295 300 305 306 307 304 302 293 292 277 266 262 263 260 254 276 273 265 242 281 248 262 261 245 265 265 255 252 257 266 266
294 297 303 302 305 308 306 304 297 298 300 300 295 293 295 303 307 309 309 308 305 295 280 277 276 269 265 264 262 265 267 267 243 249 259 264 268 261 253 250 259 257 249 258 245
287 291 298 299 301 302 303 301 298 297 296 296 297 295 300 306 309 310 308 306 302 291 296 293 290 281 280 273 270 268 272 278 277 277 276 276 270 266 263 255 256 256 257 253 263
287 288 292 296 299 300 303 303 300 298 297 296 295 296 300 307 309 309 309 305 300 295 295 296 296 289 287 280 272 271 284 267 257 249 256 268 291 244 253 272 261 246 246 242 255
Height
5741 5742 5742 5742 5745 5747 5751 5754 5756 5759 5761 5763 5765 5768 5770 5772 5775 5777 5780 5785 5786 5790 5792 5794 5796 5797 5799 5803 5805 5806 5807 5811 5817 5820 5825 5829 5832 5825 5824 5830 5833 5833 5840 5841 5834
5744 5745 5745 5745 5747 5749 5751 5753 5756 5757 5760 5762 5763 5765 5767 5768 5771 5773 5776 5778 5781 5783 5786 5788 5790 5792 5793 5795 5796 5797 5799 5807 5812 5813 5815 5819 5823 5829 5817 5818 5826 5826 5831 5833 5829
5748 5748 5748 5748 5750 5751 5753 5754 5756 5757 5758 5760 5762 5763 5765 5766 5768 5770 5771 5772 5774 5777 5778 5780 5783 5785 5788 5789 5791 5792 5797 5799 5802 5805 5807 5809 5812 5821 5815 5811 5811 5819 5820 5823 5823
5752 5751 5751 5751 5752 5753 5754 5755 5756 5757 5758 5759 5760 5762 5763 5764 5766 5767 5767 5768 5769 5770 5772 5773 5775 5777 5780 5781 5783 5784 5789 5791 5794 5795 5796 5797 5802 5805 5811 5814 5803 5804 5810 5812 5812
5757 5755 5754 5753 5754 5754 5755 5756 5757 5758 5758 5759 5759 5760 5761 5761 5763 5762 5763 5763 5763 5764 5765 5766 5767 5769 5771 5772 5774 5777 5780 5782 5786 5786 5786 5787 5789 5791 5796 5803 5802 5799 5796 5799 5807
5762 5759 5757 5756 5755 5755 5755 5756 5756 5757 5757 5757 5757 5758 5758 5758 5760 5758 5758 5758 5758 5758 5759 5760 5760 5761 5763 5765 5765 5767 5768 5771 5774 5776 5776 5777 5778 5781 5791 5792 5792 5795 5788 5783 5794
5766 5764 5760 5757 5757 5756 5755 5755 5755 5755 5755 5754 5755 5755 5755 5755 5754 5755 5754 5754 5754 5753 5753 5753 5754 5755 5755 5756 5759 5759 5758 5761 5765 5767 5767 5768 5766 5773 5781 5780 5780 5785 5783 5779 5780
5768 5765 5764 5761 5757 5756 5755 5754 5753 5752 5751 5751 5750 5750 5750 5750 5750 5750 5750 5749 5749 5749 5748 5748 5749 5749 5748 5749 5750 5750 5751 5751 5760 5757 5760 5757 5756 5767 5767 5764 5769 5771 5776 5775 5771
5770 5766 5764 5762 5760 5756 5755 5754 5753 5751 5750 5749 5747 5747 5746 5745 5744 5744 5744 5744 5744 5744 5743 5743 5742 5742 5742 5741 5742 5742 5742 5743 5748 5749 5749 5746 5748 5754 5754 5753 5757 5760 5760 5764 5761
5769 5767 5765 5762 5760 5757 5754 5752 5751 5749 5748 5746 5745 5745 5743 5743 5741 5740 5739 5738 5738 5738 5738 5738 5736 5735 5735 5733 5735 5734 5736 5737 5738 5741 5740 5738 5736 5739 5742 5743 5747 5748 5749 5751 5751
5768 5766 5764 5762 5759 5756 5755 5751 5751 5748 5745 5744 5742 5740 5739 5738 5737 5736 5735 5734 5733 5732 5731 5730 5730 5729 5728 5726 5726 5724 5725 5725 5727 5729 5727 5731 5726 5728 5731 5733 5737 5736 5738 5741 5742
5766 5764 5761 5759 5757 5754 5752 5750 5747 5746 5743 5740 5739 5737 5735 5734 5733 5731 5730 5729 5728 5727 5725 5724 5721 5721 5719 5717 5716 5715 5713 5714 5715 5717 5717 5718 5717 5717 5719 5724 5725 5725 5727 5730 5732
5762 5760 5758 5756 5754 5752 5749 5746 5743 5741 5740 5738 5735 5733 5732 5730 5728 5726 5725 5723 5721 5720 5718 5716 5716 5713 5710 5708 5706 5706 5705 5706 5705 5706 5708 5709 5705 5704 5709 5713 5716 5717 5718 5718 5719
5760 5757 5754 5752 5750 5748 5746 5742 5739 5736 5735 5735 5731 5729 5727 5725 5724 5722 5718 5717 5715 5713 5710 5707 5706 5703 5701 5699 5698 5696 5698 5698 5697 5697 5696 5702 5695 5698 5701 5702 5703 5706 5708 5710 5711
5757 5754 5750 5747 5745 5743 5741 5738 5735 5732 5729 5729 5726 5724 5721 5721 5717 5713 5715 5710 5708 5705 5702 5702 5697 5695 5696 5692 5689 5689 5689 5687 5687 5686 5686 5687 5686 5689 5693 5694 5695 5694 5697 5701 5702
5753 5750 5747 5744 5741 5738 5736 5734 5732 5730 5726 5722 5720 5717 5716 5713 5711 5709 5703 5702 5700 5696 5693 5691 5690 5688 5687 5686 5683 5681 5680 5677 5677 5676 5673 5679 5680 5678 5682 5685 5688 5687 5684 5688 5691
5747 5745 5742 5738 5737 5733 5730 5728 5728 5725 5721 5719 5715 5712 5709 5707 5705 5701 5697 5693 5690 5686 5683 5683 5681 5680 5679 5674 5673 5673 5672 5669 5669 5668 5665 5672 5665 5672 5678 5679 5680 5676 5675 5675 5679
5743 5739 5737 5733 5730 5727 5724 5723 5721 5718 5716 5710 5709 5707 5704 5702 5700 5696 5694 5691 5689 5683 5675 5670 5669 5670 5667 5663 5661 5663 5662 5661 5659 5660 5662 5663 5657 5665 5660 5664 5672 5668 5668 5667 5671
5740 5735 5731 5728 5725 5721 5719 5716 5714 5712 5709 5706 5703 5699 5699 5697 5695 5690 5685 5682 5679 5675 5668 5663 5657 5659 5654 5653 5646 5653 5652 5653 5650 5649 5650 5653 5653 5653 5658 5657 5661 5663 5661 5661 5663
5733 5731 5727 5724 5720 5716 5713 5710 5707 5704 5701 5698 5695 5693 5690 5689 5685 5683 5680 5678 5672 5661 5656 5653 5644 5648 5645 5640 5641 5641 5645 5644 5638 5638 5638 5644 5648 5648 5647 5646 5650 5651 5653 5654 5653
5727 5726 5720 5717 5714 5710 5706 5704 5700 5695 5694 5692 5688 5685 5683 5679 5676 5672 5668 5664 5655 5645 5645 5640 5638 5636 5632 5634 5634 5635 5632 5635 5632 5633 5632 5636 5640 5638 5640 5639 5644 5642 5643 5645 5645
5721 5717 5714 5711 5708 5704 5700 5697 5694 5690 5687 5684 5680 5677 5674 5671 5667 5663 5657 5651 5641 5637 5633 5630 5626 5625 5625 5625 5626 5627 5628 5624 5622 5626 5624 5627 5629 5634 5634 5631 5632 5633 5636 5636 5638
5713 5710 5709 5702 5700 5696 5691 5689 5684 5682 5678 5676 5673 5669 5667 5663 5658 5653 5647 5642 5634 5627 5623 5622 5620 5616 5618 5619 5617 5617 5617 5616 5616 5617 5617 5617 5623 5628 5621 5623 5625 5627 5629 5630 5631
5707 5704 5697 5697 5694 5691 5686 5683 5679 5675 5672 5668 5665 5661 5658 5655 5651 5644 5639 5633 5624 5621 5617 5615 5613 5612 5611 5611 5610 5606 5607 5610 5605 5600 5606 5610 5612 5616 5611 5611 5616 5618 5620 5619 5620
5695 5694 5693 5689 5684 5680 5678 5675 5671 5667 5663 5659 5658 5654 5651 5646 5642 5636 5630 5624 5619 5613 5613 5611 5609 5607 5606 5605 5604 5601 5601 5602 5605 5604 5602 5605 5601 5604 5605 5605 5605 5607 5609 5610 5609
5686 5683 5683 5680 5677 5673 5669 5666 5662 5659 5655 5652 5648 5646 5643 5639 5634 5628 5623 5617 5614 5611 5608 5607 5604 5601 5601 5599 5597 5596 5597 5596 5596 5597 5596 5595 5593 5597 5598 5599 5598 5599 5599 5599 5603
5676 5673 5671 5673 5667 5665 5662 5658 5655 5651 5649 5644 5642 5639 5635 5632 5627 5622 5616 5611 5609 5607 5604 5602 5599 5597 5596 5594 5592 5591 5592 5590 5588 5589 5589 5586 5586 5585 5586 5590 5588 5586 5587 5585 5586